Weather in Rodnikovo

Russia / Republic of Crimea     45°02′45″N   33°57′03″E
temp.,
°C
wind,
m/s
gust,
m/s
humid.,
%
clouds,
%
prec.,
mm/h
press.,
hPa
HPBL,
m
27 january, wed
wed2700:00+8s1287100 0.7 100758
03:00+10sse51276100 0.7 1004379
06:00+11se61369100 0.0 1002229
09:00+10se51271100 0.0 1001277
12:00+13sse3866100 0.1 1001674
15:00+13sse41063100 0.1 9981176
18:00+10ese4772100 0.0 996219
21:00+9se41268100 0.0 995368
28 january, thu
thu2800:00+8sse3375100 0.0 99669
03:00+7sw71282100 0.2 996721
06:00+5sw91378100 0.3 9981073
09:00+3ssw9147185 0.3 10011095
12:00+4sw11166059 0.1 10021670
15:00+4sw12176166 0.2 10041804
18:00+2sw101767100 0.2 10051639
21:00+2sw111780100 0.6 10061403
29 january, fri
fri2900:00+1sw101595100 2.0 1006974
03:00+1sw111790100 4.8 10071205
06:00+1sw91497100 2.4 1007884
09:00+1sw81492100 4.8 10081035
12:00+4wsw101471100 0.3 10091499
15:00+5sw101471100 0.6 10081422
18:00+4sw81373100 0.1 10081025
21:00+4sw81478100 0.1 1008968
30 january, sat
sat3000:00+4ssw81594100 1.3 1007916
03:00+5ssw71393100 3.1 1007733
06:00+6sw61288100 0.7 1005814
09:00+6ssw61385100 0.9 1004720
12:00+7s71267100 0.0 1003936
15:00+9s61058100 0.0 1000875
18:00+6sse4106798 0.0 999287
21:00+5s246899 0.0 999118
31 january, sun
sun3100:00+5sw237098 0.0 99947
03:00+5ssw378095 0.0 1000257
06:00+6w5894100 0.1 1001418
09:00+5wsw5893100 0.1 1005539
12:00+7sw697988 0.0 1007720
15:00+8sw687694 0.0 1007603
18:00+6ssw2382100 0.0 100762
21:00+6se3375100 0.0 100757